Home   Weather   25°48'N, 100°18'W   Past weeks
Flag for Mexico

Past Weather in 25°48'N, 100°18'W, Mexico — Yesterday and Last 2 Weeks

Now
99 °F

Scattered clouds.


Feels Like: 99 °F
Forecast: N/A
Wind: 15 mph from Southeast

Location: Aerop. Internacional Monterrey - N. L.

Current Time: Jul 17, 2019 at 5:49:00 pm

Latest Report: Jul 17, 2019 at 4:40 pm


Visibility: 7 mi

Pressure: 29.94 "Hg

Humidity: 29%

Dew Point: 61 °F

Location of 25°48'N, 100°18'WLocation

Past Weather in 25°48'N, 100°18'W — Graph

°F

25°48'N, 100°18'W Temperature Yesterday

Maximum temperature yesterday: 97 °F (at 4:40 pm)
Minimum temperature yesterday: 75 °F (at 6:40 am)
Average temperature yesterday: 87 °F

High & Low Weather Summary for the Past Weeks

 TemperatureHumidityPressure
High104 °F (Jul 9, 4:40 pm)94% (Jul 11, 6:40 pm)30.12 "Hg (Jul 11, 6:40 pm)
Low70 °F (Jul 11, 6:40 pm)17% (Jul 9, 2:40 pm)29.83 "Hg (Jul 12, 6:40 pm)
Average86 °F53%29.97 "Hg
* Reported Jul 2 3:40 pm — Jul 17 3:40 pm, 25°48'N, 100°18'W. Weather by CustomWeather, © 2019

Note: Actual official high and low records may vary slightly from our data, if they occured in-between our weather recording intervals... More about our weather records

Advertising

25°48'N, 100°18'W Weather History for the Previous 24 Hours

Scroll right to see more
 ConditionsComfort  
Time TempWeatherWind HumidityBarometerVisibility
3:40 pm
Wed, Jul 17
97 °FBroken clouds.13 mph32%29.97 "Hg8 mi
2:40 pm93 °FPartly sunny.9 mph41%30.00 "Hg8 mi
1:40 pm90 °FPartly sunny.7 mph46%30.03 "Hg8 mi
12:46 pm88 °FPartly sunny.10 mph52%30.05 "Hg8 mi
11:40 am84 °FPartly sunny.12 mph58%30.06 "Hg8 mi
10:40 am81 °FPartly sunny.7 mph66%30.05 "Hg8 mi
9:40 am81 °FPartly sunny.10 mph70%30.05 "Hg8 mi
8:40 am77 °FScattered clouds.5 mph79%30.04 "Hg8 mi
7:40 am75 °FMostly cloudy.10 mph83%30.03 "Hg7 mi
6:40 am75 °FOvercast.9 mph78%30.01 "Hg8 mi
11:40 pm
Tue, Jul 16
82 °FClear.16 mph62%29.98 "Hg7 mi
10:40 pm84 °FClear.21 mph58%29.96 "Hg7 mi
9:40 pm88 °FClear.16 mph52%29.93 "Hg10 mi
8:40 pm91 °FPassing clouds.8 mph38%29.91 "Hg15 mi
7:40 pm93 °FPartly sunny.10 mph32%29.91 "Hg15 mi
6:40 pm97 °FPartly sunny.17 mph28%29.92 "Hg15 mi
5:40 pm97 °FPartly sunny.10 mph27%29.92 "Hg12 mi
Weather by CustomWeather, © 2019

See weather overview